Volver al catálogo

METEOR 2-17 DEB

ActivoPO
NORAD 35373·DEBRIS·🇷🇺 Russia

Lanzado Jan 30, 1988 desde Plesetsk Cosmodrome

Loading…

Próximos Pases (próximas 24 horas)

TLE

EnvejeciendoSource: Space-Track

Época: Sep 6, 2026, 02:52 UTC

1 35373U 88005AH  26249.11997393  .00001339  00000-0  85352-3 0  9999
2 35373  82.5278 189.1896 0031712  33.9018 326.4170 14.02727151603636

Sigue METEOR 2-17 DEB en tiempo real con AllMySat

Download on the App Store